EN

Hourly Weather Topar

Today, 13 April, Tuesday

Time Temperature Precipitation Wind Pressure Humidity
00:00 +6°C° 0 mm 4 mps 722 mmHg 52%
01:00 +5°C° 0 mm 4 mps 722 mmHg 54%
02:00 +4°C° 0 mm 4 mps 722 mmHg 55%
03:00 +4°C° 0 mm 4 mps 722 mmHg 57%
04:00 +3°C° 0 mm 4 mps 723 mmHg 58%
05:00 +1°C° 0 mm 4 mps 723 mmHg 59%
06:00 +2°C° 0 mm 5 mps 723 mmHg 55%
07:00 +4°C° 0 mm 6 mps 724 mmHg 52%
08:00 +5°C° 0 mm 6 mps 724 mmHg 49%
09:00 +6°C° 0 mm 7 mps 724 mmHg 48%
10:00 +9°C° 0 mm 7 mps 724 mmHg 48%
11:00 +10°C° 0 mm 8 mps 725 mmHg 48%
12:00 +10°C° 0 mm 8 mps 725 mmHg 55%
13:00 +10°C° 0 mm 8 mps 725 mmHg 62%
14:00 +10°C° 0 mm 9 mps 725 mmHg 69%
15:00 +8°C° 0 mm 9 mps 725 mmHg 64%
16:00 +8°C° 0 mm 9 mps 725 mmHg 60%
17:00 +7°C° 0 mm 8 mps 726 mmHg 56%
18:00 +6°C° 0 mm 8 mps 726 mmHg 58%
19:00 +5°C° 0 mm 7 mps 726 mmHg 59%
20:00 +5°C° 0 mm 7 mps 726 mmHg 61%
21:00 +4°C° 0 mm 6 mps 726 mmHg 62%
22:00 +3°C° 0 mm 6 mps 726 mmHg 64%
23:00 +2°C° 0 mm 5 mps 727 mmHg 66%

Tomorrow, 14 April, Wednesday

Time Temperature Precipitation Wind Pressure Humidity
00:00 +2°C° 0 mm 5 mps 726 mmHg 68%
01:00 +1°C° 0 mm 5 mps 726 mmHg 71%
02:00 0°C° 0 mm 4 mps 726 mmHg 73%
03:00 0°C° 0 mm 4 mps 726 mmHg 74%
04:00 0°C° 0 mm 4 mps 726 mmHg 75%
05:00 -1°C° 0 mm 4 mps 726 mmHg 76%
06:00 +1°C° 0 mm 5 mps 726 mmHg 69%
07:00 +2°C° 0 mm 5 mps 726 mmHg 62%
08:00 +3°C° 0 mm 6 mps 726 mmHg 55%
09:00 +5°C° 0 mm 6 mps 725 mmHg 47%
10:00 +8°C° 0 mm 6 mps 725 mmHg 39%
11:00 +10°C° 0 mm 6 mps 725 mmHg 32%
12:00 +13°C° 0 mm 6 mps 724 mmHg 30%
13:00 +14°C° 0 mm 6 mps 724 mmHg 28%
14:00 +15°C° 0 mm 6 mps 724 mmHg 26%
15:00 +15°C° 0 mm 6 mps 723 mmHg 27%
16:00 +15°C° 0 mm 6 mps 723 mmHg 28%
17:00 +15°C° 0 mm 6 mps 722 mmHg 28%
18:00 +13°C° 0 mm 5 mps 722 mmHg 34%
19:00 +11°C° 0 mm 4 mps 722 mmHg 40%
20:00 +10°C° 0 mm 4 mps 722 mmHg 45%
21:00 +8°C° 0 mm 4 mps 722 mmHg 48%
22:00 +7°C° 0 mm 4 mps 722 mmHg 51%
23:00 +7°C° 0 mm 3 mps 721 mmHg 53%

Day after tomorrow, 15 April, Thursday

Time Temperature Precipitation Wind Pressure Humidity
00:00 +5°C° 0 mm 3 mps 721 mmHg 54%
01:00 +5°C° 0 mm 3 mps 721 mmHg 55%
02:00 +4°C° 0 mm 3 mps 720 mmHg 56%
03:00 +4°C° 0 mm 3 mps 720 mmHg 57%
04:00 +4°C° 0 mm 3 mps 720 mmHg 57%
05:00 +3°C° 0 mm 4 mps 720 mmHg 58%
06:00 +5°C° 0 mm 4 mps 720 mmHg 53%
07:00 +6°C° 0 mm 4 mps 720 mmHg 48%
08:00 +7°C° 0 mm 5 mps 720 mmHg 43%
09:00 +9°C° 0 mm 5 mps 720 mmHg 38%
10:00 +12°C° 0 mm 5 mps 720 mmHg 32%
11:00 +14°C° 0 mm 5 mps 719 mmHg 27%
12:00 +15°C° 0 mm 5 mps 719 mmHg 25%
13:00 +16°C° 0 mm 5 mps 719 mmHg 23%
14:00 +17°C° 0 mm 5 mps 718 mmHg 21%
15:00 +17°C° 0 mm 5 mps 718 mmHg 22%
16:00 +17°C° 0 mm 5 mps 717 mmHg 22%
17:00 +17°C° 0 mm 5 mps 717 mmHg 22%
18:00 +15°C° 0 mm 5 mps 717 mmHg 27%
19:00 +13°C° 0 mm 4 mps 717 mmHg 31%
20:00 +11°C° 0 mm 4 mps 716 mmHg 36%
21:00 +11°C° 0 mm 4 mps 716 mmHg 38%
22:00 +10°C° 0 mm 4 mps 716 mmHg 40%
23:00 +8°C° 0 mm 4 mps 715 mmHg 42%

16 April, Friday

Time Temperature Precipitation Wind Pressure Humidity
00:00 +8°C° 0 mm 4 mps 715 mmHg 43%
01:00 +8°C° 0 mm 3 mps 715 mmHg 44%
02:00 +8°C° 0 mm 3 mps 714 mmHg 45%
03:00 +7°C° 0 mm 3 mps 714 mmHg 45%
04:00 +7°C° 0 mm 3 mps 714 mmHg 45%
05:00 +7°C° 0 mm 3 mps 714 mmHg 45%
06:00 +8°C° 0 mm 3 mps 713 mmHg 43%
07:00 +9°C° 0 mm 3 mps 713 mmHg 40%
08:00 +11°C° 0 mm 4 mps 713 mmHg 38%
09:00 +12°C° 0 mm 4 mps 713 mmHg 34%
10:00 +14°C° 0 mm 4 mps 712 mmHg 30%
11:00 +17°C° 0 mm 4 mps 712 mmHg 26%
12:00 +18°C° 0 mm 4 mps 712 mmHg 24%
13:00 +19°C° 0 mm 3 mps 711 mmHg 22%
14:00 +20°C° 0 mm 3 mps 711 mmHg 20%
15:00 +19°C° 0 mm 3 mps 710 mmHg 24%
16:00 +19°C° 0 mm 2 mps 710 mmHg 28%
17:00 +18°C° 0 mm 2 mps 709 mmHg 32%
18:00 +17°C° 0 mm 2 mps 709 mmHg 34%
19:00 +16°C° 0 mm 3 mps 709 mmHg 35%
20:00 +14°C° 0 mm 3 mps 709 mmHg 37%
21:00 +13°C° 0 mm 2 mps 708 mmHg 49%
22:00 +12°C° 0 mm 2 mps 708 mmHg 62%
23:00 +11°C° 0 mm 1 mps 708 mmHg 74%

17 April, Saturday

Time Temperature Precipitation Wind Pressure Humidity
00:00 +9°C° 0.1 mm 2 mps 707 mmHg 75%
01:00 +9°C° 0.1 mm 2 mps 707 mmHg 75%
02:00 +9°C° 0.1 mm 3 mps 707 mmHg 75%
03:00 +8°C° 0 mm 3 mps 707 mmHg 79%
04:00 +8°C° 0 mm 3 mps 707 mmHg 82%
05:00 +7°C° 0 mm 3 mps 707 mmHg 85%
06:00 +8°C° 0 mm 3 mps 708 mmHg 74%
07:00 +10°C° 0 mm 3 mps 708 mmHg 63%
08:00 +11°C° 0 mm 4 mps 709 mmHg 51%
09:00 +13°C° 0 mm 4 mps 709 mmHg 45%
10:00 +14°C° 0 mm 4 mps 709 mmHg 40%
11:00 +17°C° 0 mm 4 mps 709 mmHg 34%
12:00 +17°C° 0 mm 4 mps 709 mmHg 32%
13:00 +17°C° 0 mm 5 mps 709 mmHg 30%
14:00 +17°C° 0 mm 5 mps 709 mmHg 28%
15:00 +17°C° 0 mm 5 mps 709 mmHg 28%
16:00 +17°C° 0 mm 5 mps 709 mmHg 28%
17:00 +17°C° 0 mm 5 mps 709 mmHg 28%
18:00 +15°C° 0 mm 4 mps 709 mmHg 34%
19:00 +14°C° 0 mm 3 mps 708 mmHg 40%
20:00 +14°C° 0 mm 1 mps 708 mmHg 46%
21:00 +13°C° 0 mm 1 mps 708 mmHg 47%
22:00 +13°C° 0 mm 2 mps 707 mmHg 49%
23:00 +12°C° 0 mm 2 mps 707 mmHg 51%

18 April, Sunday

Time Temperature Precipitation Wind Pressure Humidity
00:00 +12°C° 0 mm 2 mps 706 mmHg 53%
01:00 +10°C° 0 mm 2 mps 706 mmHg 56%
02:00 +10°C° 0 mm 3 mps 706 mmHg 58%
03:00 +9°C° 0 mm 3 mps 706 mmHg 61%
04:00 +7°C° 0 mm 4 mps 706 mmHg 64%
05:00 +7°C° 0 mm 4 mps 706 mmHg 67%
06:00 +8°C° 0 mm 5 mps 706 mmHg 61%
07:00 +9°C° 0 mm 6 mps 706 mmHg 56%
08:00 +10°C° 0 mm 7 mps 706 mmHg 50%
09:00 +12°C° 0 mm 8 mps 706 mmHg 46%
10:00 +13°C° 0 mm 9 mps 706 mmHg 41%
11:00 +14°C° 0 mm 10 mps 706 mmHg 37%
12:00 +13°C° 0 mm 10 mps 706 mmHg 41%
13:00 +13°C° 0 mm 10 mps 707 mmHg 46%
14:00 +12°C° 0 mm 10 mps 707 mmHg 50%
15:00 +10°C° 0 mm 9 mps 707 mmHg 60%
16:00 +7°C° 0 mm 8 mps 707 mmHg 69%
17:00 +5°C° 0 mm 7 mps 708 mmHg 78%
18:00 +4°C° 0 mm 6 mps 708 mmHg 77%
19:00 +3°C° 0 mm 5 mps 708 mmHg 75%
20:00 +3°C° 0 mm 5 mps 709 mmHg 73%
21:00 +3°C° 0.4 mm 4 mps 709 mmHg 79%
22:00 +1°C° 0.4 mm 4 mps 709 mmHg 85%
23:00 -1°C° 0.4 mm 4 mps 709 mmHg 91%
Show more

We Need Your Consent

Meteoprog and our Service Providers may store and access personal data such as cookies, device identifiers or other similar technologies on your device and process such data to personalise content and ads, as well as provide social media features and to analyse the traffic.

  • Store and/or access information on your device

    Cookies, device identifiers or other information can be stored or accessed on your device for the purposes indicated above.

  • Personalised ads and content, ad and content measurement, audience insights, and products development

    Ads and content can be personalised based on a profile. More data can be added to better personalise ads and content. Ad and content performance can be measured. Insights about the audience who saw the ads and content can be derived. Such data can be used to develop or improve user’s experience, systems and software.

By clicking ‘I Agree’ you will allow the use of indicated cookies, device identifiers, web beacons or other similar technologies. Your settings can be changed in the browser on your device.

For certain purposes, legitimate interests may be relied on, rather than consent. You can read more about this in our Privacy and Cookie Policy.